Year,Month,Day,Hour,Minute,Value (Times are PST for temperature in C)
2016,07,23,00,00,15.10
2016,07,23,00,01,15.10
2016,07,23,00,02,15.10
2016,07,23,00,03,15.10
2016,07,23,00,04,15.10
2016,07,23,00,05,15.10
2016,07,23,00,06,15.10
2016,07,23,00,07,15.10
2016,07,23,00,08,15.10
2016,07,23,00,09,15.10
2016,07,23,00,10,15.10
2016,07,23,00,11,15.10
2016,07,23,00,12,15.10
2016,07,23,00,13,15.10
2016,07,23,00,14,15.10
2016,07,23,00,15,15.10
2016,07,23,00,16,15.10
2016,07,23,00,17,15.10
2016,07,23,00,18,15.10
2016,07,23,00,19,15.10
2016,07,23,00,20,15.10
2016,07,23,00,21,15.20
2016,07,23,00,22,15.20
2016,07,23,00,23,15.20
2016,07,23,00,24,15.20
2016,07,23,00,25,15.20
2016,07,23,00,26,15.20
2016,07,23,00,27,15.20
2016,07,23,00,28,15.20
2016,07,23,00,29,15.20
2016,07,23,00,30,15.20
2016,07,23,00,31,15.20
2016,07,23,00,32,15.20
2016,07,23,00,33,15.10
2016,07,23,00,34,15.10
2016,07,23,00,35,15.10
2016,07,23,00,36,15.10
2016,07,23,00,37,15.10
2016,07,23,00,38,15.10
2016,07,23,00,39,15.10
2016,07,23,00,40,15.10
2016,07,23,00,41,15.00
2016,07,23,00,42,15.00
2016,07,23,00,43,14.90
2016,07,23,00,44,14.90
2016,07,23,00,45,14.90
2016,07,23,00,46,14.90
2016,07,23,00,47,14.90
2016,07,23,00,48,14.90
2016,07,23,00,49,14.90
2016,07,23,00,50,14.80
2016,07,23,00,51,14.80
2016,07,23,00,52,14.80
2016,07,23,00,53,14.80
2016,07,23,00,54,14.80
2016,07,23,00,55,14.80
2016,07,23,00,56,14.70
2016,07,23,00,57,14.70
2016,07,23,00,58,14.70
2016,07,23,00,59,14.70
2016,07,23,01,00,14.70
2016,07,23,01,01,14.60
2016,07,23,01,02,14.60
2016,07,23,01,03,14.50
2016,07,23,01,04,14.50
2016,07,23,01,05,14.50
2016,07,23,01,06,14.50
2016,07,23,01,07,14.40
2016,07,23,01,08,14.40
2016,07,23,01,09,14.40
2016,07,23,01,10,14.40
2016,07,23,01,11,14.40
2016,07,23,01,12,14.40
2016,07,23,01,13,14.30
2016,07,23,01,14,14.30
2016,07,23,01,15,14.30
2016,07,23,01,16,14.30
2016,07,23,01,17,14.30
2016,07,23,01,18,14.30
2016,07,23,01,19,14.30
2016,07,23,01,20,14.20
2016,07,23,01,21,14.20
2016,07,23,01,22,14.20
2016,07,23,01,23,14.20
2016,07,23,01,24,14.20
2016,07,23,01,25,14.20
2016,07,23,01,26,14.20
2016,07,23,01,27,14.10
2016,07,23,01,28,14.10
2016,07,23,01,29,14.10
2016,07,23,01,30,14.10
2016,07,23,01,31,14.10
2016,07,23,01,32,14.10
2016,07,23,01,33,14.10
2016,07,23,01,34,14.10
2016,07,23,01,35,14.10
2016,07,23,01,36,14.10
2016,07,23,01,37,14.10
2016,07,23,01,38,14.10
2016,07,23,01,39,14.10
2016,07,23,01,40,14.10
2016,07,23,01,41,14.10
2016,07,23,01,42,14.10
2016,07,23,01,43,14.10
2016,07,23,01,44,14.10
2016,07,23,01,45,14.10
2016,07,23,01,46,14.00
2016,07,23,01,47,14.00
2016,07,23,01,48,14.00
2016,07,23,01,49,14.00
2016,07,23,01,50,14.00
2016,07,23,01,51,13.90
2016,07,23,01,52,13.90
2016,07,23,01,53,13.90
2016,07,23,01,54,13.90
2016,07,23,01,55,13.90
2016,07,23,01,56,13.90
2016,07,23,01,57,13.90
2016,07,23,01,58,13.90
2016,07,23,01,59,13.90
2016,07,23,02,00,13.90
2016,07,23,02,01,13.90
2016,07,23,02,02,13.90
2016,07,23,02,03,13.90
2016,07,23,02,04,13.90
2016,07,23,02,05,13.90
2016,07,23,02,06,13.90
2016,07,23,02,07,13.90
2016,07,23,02,08,13.90
2016,07,23,02,09,13.90
2016,07,23,02,10,13.90
2016,07,23,02,11,13.90
2016,07,23,02,12,13.80
2016,07,23,02,13,13.80
2016,07,23,02,14,13.80
2016,07,23,02,15,13.80
2016,07,23,02,16,13.80
2016,07,23,02,17,13.80
2016,07,23,02,18,13.80
2016,07,23,02,19,13.80
2016,07,23,02,20,13.80
2016,07,23,02,21,13.70
2016,07,23,02,22,13.70
2016,07,23,02,23,13.70
2016,07,23,02,24,13.70
2016,07,23,02,25,13.70
2016,07,23,02,26,13.70
2016,07,23,02,27,13.70
2016,07,23,02,28,13.70
2016,07,23,02,29,13.70
2016,07,23,02,30,13.70
2016,07,23,02,31,13.70
2016,07,23,02,32,13.60
2016,07,23,02,33,13.60
2016,07,23,02,34,13.60
2016,07,23,02,35,13.60
2016,07,23,02,36,13.50
2016,07,23,02,37,13.50
2016,07,23,02,38,13.50
2016,07,23,02,39,13.50
2016,07,23,02,40,13.50
2016,07,23,02,41,13.50
2016,07,23,02,42,13.50
2016,07,23,02,43,13.50
2016,07,23,02,44,13.40
2016,07,23,02,45,13.40
2016,07,23,02,46,13.40
2016,07,23,02,47,13.40
2016,07,23,02,48,13.40
2016,07,23,02,49,13.40
2016,07,23,02,50,13.40
2016,07,23,02,51,13.40
2016,07,23,02,52,13.40
2016,07,23,02,53,13.40
2016,07,23,02,54,13.40
2016,07,23,02,55,13.40
2016,07,23,02,56,13.40
2016,07,23,02,57,13.40
2016,07,23,02,58,13.40
2016,07,23,02,59,13.40
2016,07,23,03,00,13.40
2016,07,23,03,01,13.40
2016,07,23,03,02,13.50
2016,07,23,03,03,13.50
2016,07,23,03,04,13.50
2016,07,23,03,05,13.50
2016,07,23,03,06,13.50
2016,07,23,03,07,13.50
2016,07,23,03,08,13.60
2016,07,23,03,09,13.60
2016,07,23,03,10,13.60
2016,07,23,03,11,13.60
2016,07,23,03,12,13.60
2016,07,23,03,13,13.60
2016,07,23,03,14,13.60
2016,07,23,03,15,13.60
2016,07,23,03,16,13.60
2016,07,23,03,17,13.60
2016,07,23,03,18,13.70
2016,07,23,03,19,13.70
2016,07,23,03,20,13.70
2016,07,23,03,21,13.70
2016,07,23,03,22,13.70
2016,07,23,03,23,13.70
2016,07,23,03,24,13.80
2016,07,23,03,25,13.80
2016,07,23,03,26,13.80
2016,07,23,03,27,13.80
2016,07,23,03,28,13.80
2016,07,23,03,29,13.80
2016,07,23,03,30,13.80
2016,07,23,03,31,13.90
2016,07,23,03,32,13.90
2016,07,23,03,33,13.90
2016,07,23,03,34,13.90
2016,07,23,03,35,13.90
2016,07,23,03,36,13.90
2016,07,23,03,37,13.90
2016,07,23,03,38,13.90
2016,07,23,03,39,13.90
2016,07,23,03,40,13.90
2016,07,23,03,41,13.90
2016,07,23,03,42,14.00
2016,07,23,03,43,14.00
2016,07,23,03,44,14.00
2016,07,23,03,45,14.00
2016,07,23,03,46,14.00
2016,07,23,03,47,14.10
2016,07,23,03,48,14.10
2016,07,23,03,49,14.10
2016,07,23,03,50,14.10
2016,07,23,03,51,14.10
2016,07,23,03,52,14.20
2016,07,23,03,53,14.20
2016,07,23,03,54,14.20
2016,07,23,03,55,14.20
2016,07,23,03,56,14.30
2016,07,23,03,57,14.30
2016,07,23,03,58,14.30
2016,07,23,03,59,14.40
2016,07,23,04,00,14.40
2016,07,23,04,01,14.40
2016,07,23,04,02,14.50
2016,07,23,04,03,14.50
2016,07,23,04,04,14.60
2016,07,23,04,05,14.60
2016,07,23,04,06,14.60
2016,07,23,04,07,14.70
2016,07,23,04,08,14.70
2016,07,23,04,09,14.70
2016,07,23,04,10,14.70
2016,07,23,04,11,14.80
2016,07,23,04,12,14.80
2016,07,23,04,13,14.80
2016,07,23,04,14,14.80
2016,07,23,04,15,14.80
2016,07,23,04,16,14.80
2016,07,23,04,17,14.90
2016,07,23,04,18,14.90
2016,07,23,04,19,14.90
2016,07,23,04,20,14.90
2016,07,23,04,21,15.00
2016,07,23,04,22,15.00
2016,07,23,04,23,15.00
2016,07,23,04,24,15.00
2016,07,23,04,25,15.00
2016,07,23,04,26,15.00
2016,07,23,04,27,15.00
2016,07,23,04,28,15.00
2016,07,23,04,29,15.10
2016,07,23,04,30,15.10
2016,07,23,04,31,15.00
2016,07,23,04,32,15.10
2016,07,23,04,33,15.10
2016,07,23,04,34,15.10
2016,07,23,04,35,15.10
2016,07,23,04,36,15.10
2016,07,23,04,37,15.10
2016,07,23,04,38,15.10
2016,07,23,04,39,15.10
2016,07,23,04,40,15.10
2016,07,23,04,41,15.10
2016,07,23,04,42,15.10
2016,07,23,04,43,15.10
2016,07,23,04,44,15.10
2016,07,23,04,45,15.10
2016,07,23,04,46,15.10
2016,07,23,04,47,15.10
2016,07,23,04,48,15.10
2016,07,23,04,49,15.10
2016,07,23,04,50,15.10
2016,07,23,04,51,15.10
2016,07,23,04,52,15.10
2016,07,23,04,53,15.10
2016,07,23,04,54,15.10
2016,07,23,04,55,15.10
2016,07,23,04,56,15.10
2016,07,23,04,57,15.10
2016,07,23,04,58,15.10
2016,07,23,04,59,15.10
2016,07,23,05,00,15.10
2016,07,23,05,01,15.10
2016,07,23,05,02,15.10
2016,07,23,05,03,15.10
2016,07,23,05,04,15.10
2016,07,23,05,05,15.10
2016,07,23,05,06,15.10
2016,07,23,05,07,15.10
2016,07,23,05,08,15.10
2016,07,23,05,09,15.10
2016,07,23,05,10,15.10
2016,07,23,05,11,15.10
2016,07,23,05,12,15.10
2016,07,23,05,13,15.10
2016,07,23,05,14,15.10
2016,07,23,05,15,15.10
2016,07,23,05,16,15.10
2016,07,23,05,17,15.10
2016,07,23,05,18,15.10
2016,07,23,05,19,15.10
2016,07,23,05,20,15.10
2016,07,23,05,21,15.10
2016,07,23,05,22,15.00
2016,07,23,05,23,15.10
2016,07,23,05,24,15.00
2016,07,23,05,25,15.00
2016,07,23,05,26,15.00
2016,07,23,05,27,15.00
2016,07,23,05,28,15.00
2016,07,23,05,29,15.00
2016,07,23,05,30,15.00
2016,07,23,05,31,15.00
2016,07,23,05,32,15.00
2016,07,23,05,33,15.00
2016,07,23,05,34,15.00
2016,07,23,05,35,15.00
2016,07,23,05,36,15.00
2016,07,23,05,37,15.00
2016,07,23,05,38,15.00
2016,07,23,05,39,15.00
2016,07,23,05,40,15.00
2016,07,23,05,41,15.00
2016,07,23,05,42,15.00
2016,07,23,05,43,15.00
2016,07,23,05,44,15.00
2016,07,23,05,45,14.90
2016,07,23,05,46,14.90
2016,07,23,05,47,14.90
2016,07,23,05,48,14.90
2016,07,23,05,49,14.90
2016,07,23,05,50,14.90
2016,07,23,05,51,14.90
2016,07,23,05,52,14.90
2016,07,23,05,53,14.90
2016,07,23,05,54,14.90
2016,07,23,05,55,14.90
2016,07,23,05,56,14.90
2016,07,23,05,57,14.90
2016,07,23,05,58,14.90
2016,07,23,05,59,14.90
2016,07,23,06,00,14.90
2016,07,23,06,01,14.90
2016,07,23,06,02,14.90
2016,07,23,06,03,14.90
2016,07,23,06,04,14.90
2016,07,23,06,05,14.90
2016,07,23,06,06,14.90
2016,07,23,06,07,14.90
2016,07,23,06,08,14.90
2016,07,23,06,09,14.90
2016,07,23,06,10,14.90
2016,07,23,06,11,14.90
2016,07,23,06,12,14.90
2016,07,23,06,13,14.90
2016,07,23,06,14,14.90
2016,07,23,06,15,14.90
2016,07,23,06,16,14.90
2016,07,23,06,17,14.90
2016,07,23,06,18,14.90
2016,07,23,06,19,14.90
2016,07,23,06,20,14.90
2016,07,23,06,21,14.90
2016,07,23,06,22,14.90
2016,07,23,06,23,14.90
2016,07,23,06,24,14.90
2016,07,23,06,25,14.90
2016,07,23,06,26,14.90
2016,07,23,06,27,14.90
2016,07,23,06,28,15.00
2016,07,23,06,29,15.00
2016,07,23,06,30,15.00
2016,07,23,06,31,15.00
2016,07,23,06,32,15.00
2016,07,23,06,33,15.00
2016,07,23,06,34,15.10
2016,07,23,06,35,15.10
2016,07,23,06,36,15.10
2016,07,23,06,37,15.10
2016,07,23,06,38,15.10
2016,07,23,06,39,15.10
2016,07,23,06,40,15.10
2016,07,23,06,41,15.10
2016,07,23,06,42,15.10
2016,07,23,06,43,15.10
2016,07,23,06,44,15.10
2016,07,23,06,45,15.10
2016,07,23,06,46,15.10
2016,07,23,06,47,15.10
2016,07,23,06,48,15.10
2016,07,23,06,49,15.10
2016,07,23,06,50,15.10
2016,07,23,06,51,15.10
2016,07,23,06,52,15.10
2016,07,23,06,53,15.10
2016,07,23,06,54,15.10
2016,07,23,06,55,15.10
2016,07,23,06,56,15.10
2016,07,23,06,57,15.10
2016,07,23,06,58,15.10
2016,07,23,06,59,15.10
2016,07,23,07,00,15.10
2016,07,23,07,01,15.10
2016,07,23,07,02,15.10
2016,07,23,07,03,15.10
2016,07,23,07,04,15.10
2016,07,23,07,05,15.10
2016,07,23,07,06,15.10
2016,07,23,07,07,15.20
2016,07,23,07,08,15.10
2016,07,23,07,09,15.10
2016,07,23,07,10,15.20
2016,07,23,07,11,15.20
2016,07,23,07,12,15.20
2016,07,23,07,13,15.20
2016,07,23,07,14,15.20
2016,07,23,07,15,15.20
2016,07,23,07,16,15.20
2016,07,23,07,17,15.20
2016,07,23,07,18,15.20
2016,07,23,07,19,15.20
2016,07,23,07,20,15.20
2016,07,23,07,21,15.20
2016,07,23,07,22,15.20
2016,07,23,07,23,15.20
2016,07,23,07,24,15.20
2016,07,23,07,25,15.20
2016,07,23,07,26,15.30
2016,07,23,07,27,15.30
2016,07,23,07,28,15.30
2016,07,23,07,29,15.30
2016,07,23,07,30,15.30
2016,07,23,07,31,15.30
2016,07,23,07,32,15.30
2016,07,23,07,33,15.30
2016,07,23,07,34,15.30
2016,07,23,07,35,15.30
2016,07,23,07,36,15.30
2016,07,23,07,37,15.30
2016,07,23,07,38,15.30
2016,07,23,07,39,15.30
2016,07,23,07,40,15.30
2016,07,23,07,41,15.30
2016,07,23,07,42,15.30
2016,07,23,07,43,15.30
2016,07,23,07,44,15.30
2016,07,23,07,45,15.30
2016,07,23,07,46,15.40
2016,07,23,07,47,15.40
2016,07,23,07,48,15.40
2016,07,23,07,49,15.40
2016,07,23,07,50,15.40
2016,07,23,07,51,15.40
2016,07,23,07,52,15.40
2016,07,23,07,53,15.50
2016,07,23,07,54,15.50
2016,07,23,07,55,15.50
2016,07,23,07,56,15.50
2016,07,23,07,57,15.50
2016,07,23,07,58,15.60
2016,07,23,07,59,15.60
2016,07,23,08,00,15.60
2016,07,23,08,01,15.60
2016,07,23,08,02,15.60
2016,07,23,08,03,15.60
2016,07,23,08,04,15.60
2016,07,23,08,05,15.60
2016,07,23,08,06,15.60
2016,07,23,08,07,15.60
2016,07,23,08,08,15.60
2016,07,23,08,09,15.60
2016,07,23,08,10,15.60
2016,07,23,08,11,15.60
2016,07,23,08,12,15.60
2016,07,23,08,13,15.60
2016,07,23,08,14,15.60
2016,07,23,08,15,15.60
2016,07,23,08,16,15.60
2016,07,23,08,17,15.60
2016,07,23,08,18,15.60
2016,07,23,08,19,15.60
2016,07,23,08,20,15.60
2016,07,23,08,21,15.60
2016,07,23,08,22,15.60
2016,07,23,08,23,15.60
2016,07,23,08,24,15.60
2016,07,23,08,25,15.60
2016,07,23,08,26,15.60
2016,07,23,08,27,15.60
2016,07,23,08,28,15.60
2016,07,23,08,29,15.60
2016,07,23,08,30,15.60
2016,07,23,08,31,15.60
2016,07,23,08,32,15.60
2016,07,23,08,33,15.60
2016,07,23,08,34,15.60
2016,07,23,08,35,15.60
2016,07,23,08,36,15.60
2016,07,23,08,37,15.70
2016,07,23,08,38,15.70
2016,07,23,08,39,15.70
2016,07,23,08,40,15.70
2016,07,23,08,41,15.70
2016,07,23,08,42,15.70
2016,07,23,08,43,15.70
2016,07,23,08,44,15.80
2016,07,23,08,45,15.80
2016,07,23,08,46,15.80
2016,07,23,08,47,15.80
2016,07,23,08,48,15.80
2016,07,23,08,49,15.80
2016,07,23,08,50,15.80
2016,07,23,08,51,15.80
2016,07,23,08,52,15.90
2016,07,23,08,53,15.90
2016,07,23,08,54,15.90
2016,07,23,08,55,15.90
2016,07,23,08,56,15.90
2016,07,23,08,57,15.90
2016,07,23,08,58,15.90
2016,07,23,08,59,16.00
2016,07,23,09,00,16.00
2016,07,23,09,01,16.10
2016,07,23,09,02,16.10
2016,07,23,09,03,16.10
2016,07,23,09,04,16.10
2016,07,23,09,05,16.10
2016,07,23,09,06,16.20
2016,07,23,09,07,16.20
2016,07,23,09,08,16.30
2016,07,23,09,09,16.30
2016,07,23,09,10,16.30
2016,07,23,09,11,16.40
2016,07,23,09,12,16.50
2016,07,23,09,13,16.60
2016,07,23,09,14,16.60
2016,07,23,09,15,16.70
2016,07,23,09,16,16.70
2016,07,23,09,17,16.70
2016,07,23,09,18,16.80
2016,07,23,09,19,16.80
2016,07,23,09,20,16.90
2016,07,23,09,21,16.90
2016,07,23,09,22,17.00
2016,07,23,09,23,17.00
2016,07,23,09,24,17.10
2016,07,23,09,25,17.20
2016,07,23,09,26,17.20
2016,07,23,09,27,17.20
2016,07,23,09,28,17.30
2016,07,23,09,29,17.30
2016,07,23,09,30,17.30
2016,07,23,09,31,17.40
2016,07,23,09,32,17.40
2016,07,23,09,33,17.40
2016,07,23,09,34,17.50
2016,07,23,09,35,17.50
2016,07,23,09,36,17.60
2016,07,23,09,37,17.60
2016,07,23,09,38,17.70
2016,07,23,09,39,17.80
2016,07,23,09,40,17.90
2016,07,23,09,41,18.00
2016,07,23,09,42,18.10
2016,07,23,09,43,18.20
2016,07,23,09,44,18.30
2016,07,23,09,45,18.40
2016,07,23,09,46,18.50
2016,07,23,09,47,18.60
2016,07,23,09,48,18.70
2016,07,23,09,49,18.70
2016,07,23,09,50,18.80
2016,07,23,09,51,18.80
2016,07,23,09,52,18.90
2016,07,23,09,53,19.00
2016,07,23,09,54,19.10
2016,07,23,09,55,19.20
2016,07,23,09,56,19.30
2016,07,23,09,57,19.30
2016,07,23,09,58,19.40
2016,07,23,09,59,19.50
2016,07,23,10,00,19.60
2016,07,23,10,01,19.60
2016,07,23,10,02,19.50
2016,07,23,10,03,19.50
2016,07,23,10,04,19.50
2016,07,23,10,05,19.40
2016,07,23,10,06,19.40
2016,07,23,10,07,19.30
2016,07,23,10,08,19.30
2016,07,23,10,09,19.30
2016,07,23,10,10,19.30
2016,07,23,10,11,19.40
2016,07,23,10,12,19.40
2016,07,23,10,13,19.40
2016,07,23,10,14,19.30
2016,07,23,10,15,19.30
2016,07,23,10,16,19.40
2016,07,23,10,17,19.40
2016,07,23,10,18,19.30
2016,07,23,10,19,19.30
2016,07,23,10,20,19.30
2016,07,23,10,21,19.30
2016,07,23,10,22,19.30
2016,07,23,10,23,19.30
2016,07,23,10,24,19.30
2016,07,23,10,25,19.40
2016,07,23,10,26,19.40
2016,07,23,10,27,19.40
2016,07,23,10,28,19.40
2016,07,23,10,29,19.40
2016,07,23,10,30,19.40
2016,07,23,10,31,19.40
2016,07,23,10,32,19.30
2016,07,23,10,33,19.20
2016,07,23,10,34,19.20
2016,07,23,10,35,19.20
2016,07,23,10,36,19.20
2016,07,23,10,37,19.20
2016,07,23,10,38,19.20
2016,07,23,10,39,19.20
2016,07,23,10,40,19.20
2016,07,23,10,41,19.20
2016,07,23,10,42,19.20
2016,07,23,10,43,19.20
2016,07,23,10,44,19.20
2016,07,23,10,45,19.20
2016,07,23,10,46,19.20
2016,07,23,10,47,19.20
2016,07,23,10,48,19.20
2016,07,23,10,49,19.20
2016,07,23,10,50,19.20
2016,07,23,10,51,19.20
2016,07,23,10,52,19.20
2016,07,23,10,53,19.20
2016,07,23,10,54,19.20
2016,07,23,10,55,19.20
2016,07,23,10,56,19.20
2016,07,23,10,57,19.20
2016,07,23,10,58,19.20
2016,07,23,10,59,19.20
2016,07,23,11,00,19.20
2016,07,23,11,01,19.10
2016,07,23,11,02,19.10
2016,07,23,11,03,19.10
2016,07,23,11,04,19.20
2016,07,23,11,05,19.20
2016,07,23,11,06,19.30
2016,07,23,11,07,19.30
2016,07,23,11,08,19.40
2016,07,23,11,09,19.30
2016,07,23,11,10,19.30
2016,07,23,11,11,19.30
2016,07,23,11,12,19.20
2016,07,23,11,13,19.20
2016,07,23,11,14,19.30
2016,07,23,11,15,19.20
2016,07,23,11,16,19.20
2016,07,23,11,17,19.20
2016,07,23,11,18,19.20
2016,07,23,11,19,19.20
2016,07,23,11,20,19.10
2016,07,23,11,21,19.00
2016,07,23,11,22,18.90
2016,07,23,11,23,18.90
2016,07,23,11,24,18.90
2016,07,23,11,25,18.90
2016,07,23,11,26,18.90
2016,07,23,11,27,18.90
2016,07,23,11,28,18.80
2016,07,23,11,29,18.70
2016,07,23,11,30,18.70
2016,07,23,11,31,18.70
2016,07,23,11,32,18.70
2016,07,23,11,33,18.70
2016,07,23,11,34,18.80
2016,07,23,11,35,18.80
2016,07,23,11,36,18.80
2016,07,23,11,37,18.90
2016,07,23,11,38,18.90
2016,07,23,11,39,19.00
2016,07,23,11,40,19.00
2016,07,23,11,41,19.00
2016,07,23,11,42,19.10
2016,07,23,11,43,19.10
2016,07,23,11,44,19.20
2016,07,23,11,45,19.20
2016,07,23,11,46,19.30
2016,07,23,11,47,19.30
2016,07,23,11,48,19.40
2016,07,23,11,49,19.40
2016,07,23,11,50,19.40
2016,07,23,11,51,19.40
2016,07,23,11,52,19.40
2016,07,23,11,53,19.40
2016,07,23,11,54,19.40
2016,07,23,11,55,19.50
2016,07,23,11,56,19.50
2016,07,23,11,57,19.60
2016,07,23,11,58,19.60
2016,07,23,11,59,19.60
2016,07,23,12,00,19.60
2016,07,23,12,01,19.70
2016,07,23,12,02,19.80
2016,07,23,12,03,19.80
2016,07,23,12,04,19.90
2016,07,23,12,05,20.00
2016,07,23,12,06,20.00
2016,07,23,12,07,20.10
2016,07,23,12,08,20.10
2016,07,23,12,09,20.20
2016,07,23,12,10,20.30
2016,07,23,12,11,20.30
2016,07,23,12,12,20.30
2016,07,23,12,13,20.40
2016,07,23,12,14,20.40
2016,07,23,12,15,20.30
2016,07,23,12,16,20.30
2016,07,23,12,17,20.30
2016,07,23,12,18,20.30
2016,07,23,12,19,20.30
2016,07,23,12,20,20.30
2016,07,23,12,21,20.40
2016,07,23,12,22,20.30
2016,07,23,12,23,20.30
2016,07,23,12,24,20.30
2016,07,23,12,25,20.30
2016,07,23,12,26,20.30
2016,07,23,12,27,20.30
2016,07,23,12,28,20.30
2016,07,23,12,29,20.30
2016,07,23,12,30,20.40
2016,07,23,12,31,20.50
2016,07,23,12,32,20.50
2016,07,23,12,33,20.60
2016,07,23,12,34,20.70
2016,07,23,12,35,20.70
2016,07,23,12,36,20.70
2016,07,23,12,37,20.70
2016,07,23,12,38,20.80
2016,07,23,12,39,20.80
2016,07,23,12,40,20.70
2016,07,23,12,41,20.60
2016,07,23,12,42,20.50
2016,07,23,12,43,20.40
2016,07,23,12,44,20.40
2016,07,23,12,45,20.40
2016,07,23,12,46,20.50
2016,07,23,12,47,20.60
2016,07,23,12,48,20.60
2016,07,23,12,49,20.70
2016,07,23,12,50,20.90
2016,07,23,12,51,21.10
2016,07,23,12,52,21.20
2016,07,23,12,53,21.30
2016,07,23,12,54,21.50
2016,07,23,12,55,21.60
2016,07,23,12,56,21.80
2016,07,23,12,57,21.80
2016,07,23,12,58,21.70
2016,07,23,12,59,21.70
2016,07,23,13,00,21.70
2016,07,23,13,01,21.60
2016,07,23,13,02,21.60
2016,07,23,13,03,21.60
2016,07,23,13,04,21.60
2016,07,23,13,05,21.60
2016,07,23,13,06,21.60
2016,07,23,13,07,21.50
2016,07,23,13,08,21.50
2016,07,23,13,09,21.50
2016,07,23,13,10,21.60
2016,07,23,13,11,21.50
2016,07,23,13,12,21.50
2016,07,23,13,13,21.50
2016,07,23,13,14,21.50
2016,07,23,13,15,21.50
2016,07,23,13,16,21.50
2016,07,23,13,17,21.50
2016,07,23,13,18,21.50
2016,07,23,13,19,21.50
2016,07,23,13,20,21.40
2016,07,23,13,21,21.40
2016,07,23,13,22,21.30
2016,07,23,13,23,21.40
2016,07,23,13,24,21.40
2016,07,23,13,25,21.40
2016,07,23,13,26,21.40
2016,07,23,13,27,21.30
2016,07,23,13,28,21.20
2016,07,23,13,29,21.30
2016,07,23,13,30,21.40
2016,07,23,13,31,21.50
2016,07,23,13,32,21.50
2016,07,23,13,33,21.60
2016,07,23,13,34,21.60
2016,07,23,13,35,21.70
2016,07,23,13,36,21.80
2016,07,23,13,37,21.90
2016,07,23,13,38,21.90
2016,07,23,13,39,22.00
2016,07,23,13,40,22.00
2016,07,23,13,41,22.00
2016,07,23,13,42,22.00
2016,07,23,13,43,21.90
2016,07,23,13,44,21.80
2016,07,23,13,45,21.60
2016,07,23,13,46,21.50
2016,07,23,13,47,21.30
2016,07,23,13,48,21.20
2016,07,23,13,49,21.10
2016,07,23,13,50,21.10
2016,07,23,13,51,21.10
2016,07,23,13,52,21.10
2016,07,23,13,53,21.20
2016,07,23,13,54,21.20
2016,07,23,13,55,21.30
2016,07,23,13,56,21.30
2016,07,23,13,57,21.40
2016,07,23,13,58,21.50
2016,07,23,13,59,21.60
2016,07,23,14,00,21.80
2016,07,23,14,01,22.00
2016,07,23,14,02,22.20
2016,07,23,14,03,22.30
2016,07,23,14,04,22.30
2016,07,23,14,05,22.30
2016,07,23,14,06,22.10
2016,07,23,14,07,22.10
2016,07,23,14,08,21.90
2016,07,23,14,09,21.80
2016,07,23,14,10,21.80
2016,07,23,14,11,21.90
2016,07,23,14,12,21.90
2016,07,23,14,13,22.00
2016,07,23,14,14,22.10
2016,07,23,14,15,22.20
2016,07,23,14,16,22.30
2016,07,23,14,17,22.30
2016,07,23,14,18,22.30
2016,07,23,14,19,22.30
2016,07,23,14,20,22.30
2016,07,23,14,21,22.30
2016,07,23,14,22,22.30
2016,07,23,14,23,22.20
2016,07,23,14,24,21.90
2016,07,23,14,25,21.80
2016,07,23,14,26,21.70
2016,07,23,14,27,21.80
2016,07,23,14,28,21.80
2016,07,23,14,29,21.80
2016,07,23,14,30,21.90
2016,07,23,14,31,21.90
2016,07,23,14,32,21.90
2016,07,23,14,33,21.80
2016,07,23,14,34,21.80
2016,07,23,14,35,21.80
2016,07,23,14,36,22.00
2016,07,23,14,37,22.00
2016,07,23,14,38,21.90
2016,07,23,14,39,21.90
2016,07,23,14,40,22.00
2016,07,23,14,41,22.00
2016,07,23,14,42,22.00
2016,07,23,14,43,22.00
2016,07,23,14,44,22.10
2016,07,23,14,45,22.20
2016,07,23,14,46,22.20
2016,07,23,14,47,22.20
2016,07,23,14,48,22.10
2016,07,23,14,49,22.00
2016,07,23,14,50,22.00
2016,07,23,14,51,22.10
2016,07,23,14,52,22.00
2016,07,23,14,53,21.80
2016,07,23,14,54,21.70
2016,07,23,14,55,21.60
2016,07,23,14,56,21.60
2016,07,23,14,57,21.50
2016,07,23,14,58,21.50
2016,07,23,14,59,21.60
2016,07,23,15,00,21.70
2016,07,23,15,01,21.70
2016,07,23,15,02,21.80
2016,07,23,15,03,21.90
2016,07,23,15,04,21.90
2016,07,23,15,05,21.90
2016,07,23,15,06,21.90
2016,07,23,15,07,22.00
2016,07,23,15,08,22.10
2016,07,23,15,09,22.20
2016,07,23,15,10,22.30
2016,07,23,15,11,22.30
2016,07,23,15,12,22.30
2016,07,23,15,13,22.20
2016,07,23,15,14,22.20
2016,07,23,15,15,22.10
2016,07,23,15,16,22.00
2016,07,23,15,17,21.90
2016,07,23,15,18,22.00
2016,07,23,15,19,22.10
2016,07,23,15,20,22.10
2016,07,23,15,21,22.20
2016,07,23,15,22,22.20
2016,07,23,15,23,22.20
2016,07,23,15,24,22.20
2016,07,23,15,25,22.10
2016,07,23,15,26,22.10
2016,07,23,15,27,22.10
2016,07,23,15,28,22.10
2016,07,23,15,29,22.10
2016,07,23,15,30,22.20
2016,07,23,15,31,22.20
2016,07,23,15,32,22.30
2016,07,23,15,33,22.20
2016,07,23,15,34,22.10
2016,07,23,15,35,22.20
2016,07,23,15,36,22.20
2016,07,23,15,37,22.20
2016,07,23,15,38,22.20
2016,07,23,15,39,22.20
2016,07,23,15,40,22.30
2016,07,23,15,41,22.30
2016,07,23,15,42,22.30
2016,07,23,15,43,22.30
2016,07,23,15,44,22.20
2016,07,23,15,45,22.10
2016,07,23,15,46,22.00
2016,07,23,15,47,22.00
2016,07,23,15,48,22.10
2016,07,23,15,49,22.00
2016,07,23,15,50,22.00
2016,07,23,15,51,22.10
2016,07,23,15,52,22.20
2016,07,23,15,53,22.20
2016,07,23,15,54,22.20
2016,07,23,15,55,22.20
2016,07,23,15,56,22.20
2016,07,23,15,57,22.10
2016,07,23,15,58,22.10
2016,07,23,15,59,22.00
2016,07,23,16,00,22.00
2016,07,23,16,01,22.10
2016,07,23,16,02,22.10
2016,07,23,16,03,22.10
2016,07,23,16,04,22.20
2016,07,23,16,05,22.10
2016,07,23,16,06,22.10
2016,07,23,16,07,22.10
2016,07,23,16,08,22.10
2016,07,23,16,09,22.20
2016,07,23,16,10,22.20
2016,07,23,16,11,22.30
2016,07,23,16,12,22.30
2016,07,23,16,13,22.40
2016,07,23,16,14,22.40
2016,07,23,16,15,22.40
2016,07,23,16,16,22.30
2016,07,23,16,17,22.30
2016,07,23,16,18,22.30
2016,07,23,16,19,22.30
2016,07,23,16,20,22.30
2016,07,23,16,21,22.30
2016,07,23,16,22,22.30
2016,07,23,16,23,22.30
2016,07,23,16,24,22.20
2016,07,23,16,25,22.20
2016,07,23,16,26,22.10
2016,07,23,16,27,22.10
2016,07,23,16,28,22.10
2016,07,23,16,29,22.10
2016,07,23,16,30,22.10
2016,07,23,16,31,22.20
2016,07,23,16,32,22.20
2016,07,23,16,33,22.20
2016,07,23,16,34,22.20
2016,07,23,16,35,22.20
2016,07,23,16,36,22.20
2016,07,23,16,37,22.20
2016,07,23,16,38,22.10
2016,07,23,16,39,22.10
2016,07,23,16,40,22.00
2016,07,23,16,41,21.90
2016,07,23,16,42,21.90
2016,07,23,16,43,21.80
2016,07,23,16,44,21.80
2016,07,23,16,45,21.70
2016,07,23,16,46,21.70
2016,07,23,16,47,21.70
2016,07,23,16,48,21.60
2016,07,23,16,49,21.60
2016,07,23,16,50,21.60
2016,07,23,16,51,21.50
2016,07,23,16,52,21.50
2016,07,23,16,53,21.50
2016,07,23,16,54,21.40
2016,07,23,16,55,21.40
2016,07,23,16,56,21.40
2016,07,23,16,57,21.40
2016,07,23,16,58,21.40
2016,07,23,16,59,21.40
2016,07,23,17,00,21.40
2016,07,23,17,01,21.40
2016,07,23,17,02,21.40
2016,07,23,17,03,21.50
2016,07,23,17,04,21.50
2016,07,23,17,05,21.50
2016,07,23,17,06,21.50
2016,07,23,17,07,21.50
2016,07,23,17,08,21.40
2016,07,23,17,09,21.40
2016,07,23,17,10,21.30
2016,07,23,17,11,21.30
2016,07,23,17,12,21.30
2016,07,23,17,13,21.30
2016,07,23,17,14,21.30
2016,07,23,17,15,21.30
2016,07,23,17,16,21.30
2016,07,23,17,17,21.40
2016,07,23,17,18,21.40
2016,07,23,17,19,21.30